When you browse on this site, cookies collect data to enhance your experience and personalize the content and advertising you see.
Visit our Privacy Policy to learn more. By continuing to use the site, you agree to this use of cookies and data.
  • Em Portugal
  • Lista de países
  • Para 7 dias
  • Temperatura da água
  • Mapa do tempo
  • Widgets de tempo
  • user-avatar
    Iniciar Sessão

    Previsão horária em Oran

    Hoje, 15 Outubro, Terça-feira

    Tempo Temperatura Precipitação Vento Pressão Humidade
    00:00 +22°C° 0 mm 8 m/s 753 mmHg 71%
    01:00 +21°C° 0 mm 8 m/s 753 mmHg 72%
    02:00 +21°C° 0 mm 8 m/s 753 mmHg 73%
    03:00 +21°C° 0 mm 8 m/s 753 mmHg 74%
    04:00 +20°C° 0 mm 8 m/s 753 mmHg 74%
    05:00 +20°C° 0 mm 7 m/s 753 mmHg 74%
    06:00 +20°C° 0 mm 6 m/s 754 mmHg 77%
    07:00 +21°C° 0.1 mm 6 m/s 754 mmHg 73%
    08:00 +22°C° 0.1 mm 6 m/s 754 mmHg 69%
    09:00 +22°C° 0.1 mm 6 m/s 755 mmHg 65%
    10:00 +23°C° 0.1 mm 6 m/s 755 mmHg 62%
    11:00 +23°C° 0.1 mm 6 m/s 755 mmHg 59%
    12:00 +25°C° 0.1 mm 5 m/s 755 mmHg 56%
    13:00 +25°C° 0 mm 5 m/s 754 mmHg 55%
    14:00 +25°C° 0 mm 4 m/s 754 mmHg 54%
    15:00 +25°C° 0 mm 4 m/s 753 mmHg 54%
    16:00 +24°C° 0 mm 3 m/s 754 mmHg 57%
    17:00 +23°C° 0 mm 2 m/s 754 mmHg 59%
    18:00 +21°C° 0 mm 2 m/s 754 mmHg 62%
    19:00 +22°C° 0 mm 1 m/s 754 mmHg 63%
    20:00 +22°C° 0 mm 1 m/s 755 mmHg 64%
    21:00 +19°C° 0 mm 0 m/s 755 mmHg 65%
    22:00 +19°C° 0 mm 0 m/s 755 mmHg 67%
    23:00 +18°C° 0 mm 0 m/s 755 mmHg 68%

    Amanhã, 16 Outubro, Quarta-feira

    Tempo Temperatura Precipitação Vento Pressão Humidade
    00:00 +18°C° 0 mm 0 m/s 754 mmHg 69%
    01:00 +18°C° 0 mm 0 m/s 754 mmHg 70%
    02:00 +17°C° 0 mm 0 m/s 754 mmHg 71%
    03:00 +17°C° 0 mm 0 m/s 754 mmHg 72%
    04:00 +17°C° 0 mm 0 m/s 754 mmHg 73%
    05:00 +17°C° 0 mm 0 m/s 754 mmHg 73%
    06:00 +17°C° 0 mm 0 m/s 754 mmHg 74%
    07:00 +18°C° 0 mm 0 m/s 754 mmHg 68%
    08:00 +21°C° 0 mm 1 m/s 754 mmHg 62%
    09:00 +23°C° 0 mm 1 m/s 754 mmHg 56%
    10:00 +24°C° 0 mm 1 m/s 754 mmHg 52%
    11:00 +25°C° 0 mm 2 m/s 754 mmHg 49%
    12:00 +26°C° 0 mm 2 m/s 753 mmHg 46%
    13:00 +26°C° 0 mm 2 m/s 753 mmHg 46%
    14:00 +26°C° 0 mm 2 m/s 753 mmHg 47%
    15:00 +26°C° 0 mm 3 m/s 752 mmHg 47%
    16:00 +25°C° 0 mm 2 m/s 752 mmHg 51%
    17:00 +24°C° 0 mm 2 m/s 752 mmHg 54%
    18:00 +23°C° 0 mm 2 m/s 752 mmHg 58%
    19:00 +23°C° 0 mm 1 m/s 753 mmHg 60%
    20:00 +22°C° 0 mm 1 m/s 753 mmHg 62%
    21:00 +20°C° 0 mm 0 m/s 753 mmHg 64%
    22:00 +20°C° 0 mm 0 m/s 753 mmHg 65%
    23:00 +19°C° 0 mm 0 m/s 753 mmHg 66%

    Depois de amanhã, 17 Outubro, Quinta-feira

    Tempo Temperatura Precipitação Vento Pressão Humidade
    00:00 +19°C° 0 mm 0 m/s 753 mmHg 68%
    01:00 +19°C° 0 mm 0 m/s 753 mmHg 69%
    02:00 +18°C° 0 mm 0 m/s 753 mmHg 70%
    03:00 +18°C° 0 mm 0 m/s 752 mmHg 71%
    04:00 +20°C° 0 mm 1 m/s 752 mmHg 72%
    05:00 +19°C° 0 mm 1 m/s 752 mmHg 73%
    06:00 +19°C° 0 mm 1 m/s 752 mmHg 75%
    07:00 +20°C° 0 mm 1 m/s 752 mmHg 69%
    08:00 +22°C° 0 mm 1 m/s 753 mmHg 64%
    09:00 +23°C° 0 mm 1 m/s 753 mmHg 58%
    10:00 +24°C° 0 mm 1 m/s 753 mmHg 54%
    11:00 +25°C° 0 mm 2 m/s 753 mmHg 50%
    12:00 +26°C° 0 mm 2 m/s 753 mmHg 46%
    13:00 +26°C° 0 mm 3 m/s 753 mmHg 47%
    14:00 +26°C° 0 mm 3 m/s 753 mmHg 47%
    15:00 +26°C° 0 mm 4 m/s 752 mmHg 47%
    16:00 +25°C° 0 mm 3 m/s 752 mmHg 50%
    17:00 +24°C° 0 mm 3 m/s 752 mmHg 53%
    18:00 +23°C° 0 mm 2 m/s 752 mmHg 56%
    19:00 +23°C° 0 mm 2 m/s 752 mmHg 58%
    20:00 +23°C° 0 mm 2 m/s 753 mmHg 61%
    21:00 +21°C° 0 mm 2 m/s 753 mmHg 63%
    22:00 +21°C° 0 mm 2 m/s 753 mmHg 64%
    23:00 +21°C° 0 mm 2 m/s 753 mmHg 65%

    18 Outubro, Sexta-feira

    Tempo Temperatura Precipitação Vento Pressão Humidade
    00:00 +20°C° 0 mm 2 m/s 753 mmHg 66%
    01:00 +20°C° 0 mm 2 m/s 753 mmHg 67%
    02:00 +20°C° 0 mm 2 m/s 753 mmHg 68%
    03:00 +20°C° 0 mm 2 m/s 753 mmHg 69%
    04:00 +19°C° 0 mm 2 m/s 753 mmHg 71%
    05:00 +19°C° 0 mm 2 m/s 753 mmHg 73%
    06:00 +20°C° 0 mm 1 m/s 753 mmHg 74%
    07:00 +21°C° 0 mm 1 m/s 753 mmHg 68%
    08:00 +22°C° 0 mm 1 m/s 753 mmHg 62%
    09:00 +24°C° 0 mm 1 m/s 753 mmHg 56%
    10:00 +25°C° 0 mm 2 m/s 753 mmHg 51%
    11:00 +26°C° 0 mm 2 m/s 753 mmHg 46%
    12:00 +27°C° 0 mm 2 m/s 753 mmHg 41%
    13:00 +27°C° 0 mm 3 m/s 752 mmHg 41%
    14:00 +27°C° 0 mm 3 m/s 752 mmHg 41%
    15:00 +27°C° 0 mm 3 m/s 752 mmHg 41%
    16:00 +26°C° 0 mm 3 m/s 752 mmHg 44%
    17:00 +25°C° 0 mm 2 m/s 752 mmHg 47%
    18:00 +24°C° 0 mm 1 m/s 751 mmHg 51%
    19:00 +23°C° 0 mm 1 m/s 752 mmHg 52%
    20:00 +23°C° 0 mm 1 m/s 752 mmHg 54%
    21:00 +23°C° 0 mm 1 m/s 752 mmHg 56%
    22:00 +22°C° 0 mm 1 m/s 752 mmHg 56%
    23:00 +22°C° 0 mm 1 m/s 752 mmHg 56%

    19 Outubro, Sábado

    Tempo Temperatura Precipitação Vento Pressão Humidade
    00:00 +22°C° 0 mm 1 m/s 751 mmHg 56%
    01:00 +22°C° 0 mm 1 m/s 751 mmHg 56%
    02:00 +21°C° 0 mm 1 m/s 751 mmHg 57%
    03:00 +21°C° 0 mm 1 m/s 750 mmHg 57%
    04:00 +20°C° 0 mm 2 m/s 750 mmHg 58%
    05:00 +20°C° 0 mm 2 m/s 750 mmHg 59%
    06:00 +19°C° 0 mm 2 m/s 750 mmHg 60%
    07:00 +21°C° 0 mm 2 m/s 750 mmHg 54%
    08:00 +24°C° 0 mm 3 m/s 751 mmHg 48%
    09:00 +25°C° 0 mm 3 m/s 751 mmHg 42%
    10:00 +26°C° 0 mm 4 m/s 751 mmHg 41%
    11:00 +27°C° 0 mm 5 m/s 750 mmHg 40%
    12:00 +28°C° 0 mm 6 m/s 750 mmHg 39%
    13:00 +28°C° 0 mm 6 m/s 750 mmHg 43%
    14:00 +27°C° 0 mm 6 m/s 750 mmHg 48%
    15:00 +27°C° 0 mm 7 m/s 749 mmHg 52%
    16:00 +26°C° 0 mm 6 m/s 749 mmHg 54%
    17:00 +25°C° 0 mm 5 m/s 749 mmHg 56%
    18:00 +23°C° 0 mm 5 m/s 749 mmHg 58%
    19:00 +23°C° 0 mm 5 m/s 750 mmHg 58%
    20:00 +22°C° 0 mm 4 m/s 750 mmHg 59%
    21:00 +22°C° 0 mm 4 m/s 750 mmHg 59%
    22:00 +22°C° 0 mm 4 m/s 750 mmHg 57%
    23:00 +22°C° 0 mm 4 m/s 750 mmHg 55%

    20 Outubro, Domingo

    Tempo Temperatura Precipitação Vento Pressão Humidade
    00:00 +22°C° 0 mm 4 m/s 750 mmHg 53%
    01:00 +21°C° 0 mm 4 m/s 750 mmHg 53%
    02:00 +21°C° 0 mm 4 m/s 749 mmHg 54%
    03:00 +21°C° 0 mm 4 m/s 749 mmHg 55%
    04:00 +20°C° 0 mm 4 m/s 749 mmHg 56%
    05:00 +20°C° 0 mm 4 m/s 749 mmHg 57%
    06:00 +20°C° 0 mm 3 m/s 749 mmHg 58%
    07:00 +21°C° 0 mm 4 m/s 749 mmHg 56%
    08:00 +22°C° 0 mm 4 m/s 749 mmHg 54%
    09:00 +23°C° 0 mm 4 m/s 749 mmHg 52%
    10:00 +25°C° 0 mm 5 m/s 749 mmHg 51%
    11:00 +26°C° 0 mm 5 m/s 749 mmHg 50%
    12:00 +27°C° 0 mm 6 m/s 749 mmHg 49%
    13:00 +26°C° 0.1 mm 6 m/s 748 mmHg 52%
    14:00 +24°C° 0.1 mm 7 m/s 748 mmHg 54%
    15:00 +24°C° 0.1 mm 7 m/s 748 mmHg 56%
    16:00 +23°C° 0.1 mm 7 m/s 748 mmHg 59%
    17:00 +22°C° 0.1 mm 6 m/s 748 mmHg 62%
    18:00 +21°C° 0.1 mm 6 m/s 748 mmHg 66%
    19:00 +21°C° 0.2 mm 6 m/s 749 mmHg 65%
    20:00 +21°C° 0.2 mm 6 m/s 749 mmHg 65%
    21:00 +20°C° 0.2 mm 7 m/s 750 mmHg 65%
    22:00 +20°C° 0.1 mm 7 m/s 750 mmHg 62%
    23:00 +20°C° 0.1 mm 8 m/s 750 mmHg 59%
    Mostrar mais